Regional Weather Roundup
Issued by NWS

Home | Current Version | Previous Version | Text Only | Print | Product List | Glossary On
Versions: 1 2 3 4 5 6 7 8 9 10 11 12 13 14 15 16 17 18 19 20 21 22 23 24 25 26 27 28 29 30 31 32 33 34 35 36 37 38 39 40 41 42 43 44 45 46 47 48 49 50
000
ASUS46 KPQR 280510
RWROR

OREGON REGIONAL WEATHER ROUNDUP
NATIONAL WEATHER SERVICE PORTLAND OR
1000 PM PDT THU AUG 27 2015

NOTE: "FAIR" INDICATES FEW OR NO CLOUDS BELOW 12,000 FEET WITH
NO SIGNIFICANT WEATHER AND/OR OBSTRUCTIONS TO VISIBILITY.

ORZ001>013-280600-
NORTHWEST OREGON


CITY           SKY/WX    TMP DP  RH WIND       PRES   REMARKS
ASTORIA        CLOUDY    62  56  80 W5        30.02R
NEWPORT        CLOUDY    63  55  77 S6        30.08S
PORTLAND       CLOUDY    79  53  40 W7        29.97R
VANCOUVER WA   CLOUDY    79  50  36 NW5       29.97R
SCAPPOOSE      CLOUDY    77  45  32 N7        29.96R
HILLSBORO      CLOUDY    76  46  34 W10       29.97R
AURORA         CLOUDY    75  41  29 SW8       29.99R
MCMINNVILLE    CLOUDY    73  39  29 SW9       30.00R
SALEM          CLOUDY    73  40  30 SW8       30.01R
CORVALLIS      CLOUDY    68  45  42 W9        30.05R
EUGENE         CLOUDY    71  43  36 SW7       30.05S
$$

ORZ021-028-280600-
SOUTHWEST OREGON


CITY           SKY/WX    TMP DP  RH WIND       PRES   REMARKS
NORTH BEND     CLOUDY    66  55  68 CALM      30.07S
BROOKINGS      CLOUDY    64  51  62 CALM      30.09R
ROSEBURG       CLOUDY    74  46  36 N6        30.05R
SEXTON SUMMIT  CLOUDY    63  47  55 SW7       30.16S
MEDFORD        PTCLDY    78  49  35 NW8       30.04R
$$

ORZ014>016-041-280600-
COLUMBIA GORGE


CITY           SKY/WX    TMP DP  RH WIND       PRES   REMARKS
TROUTDALE      CLOUDY    76  54  46 CALM      29.96R
THE DALLES     MOCLDY    81  42  25 CALM      29.92R
$$

ORZ029>031-041-044-049-050-061>064-502-503-505>511-280600-
EASTERN OREGON


CITY           SKY/WX    TMP DP  RH WIND       PRES   REMARKS
REDMOND        CLOUDY    74  42  31 NW10      30.05S
BEND           CLOUDY    72  41  33 NW8       30.08S
PRINEVILLE     MOCLDY    72  41  33 NW7       30.05S
KLAMATH FALLS  CLEAR     65  42  43 W7        30.15R HAZE
LAKEVIEW       MOCLDY    61  36  39 S8        30.19R
HERMISTON      PTCLDY    72  53  51 E7        29.91R
PENDLETON      PTCLDY    73  39  29 SE3       29.96S
JOHN DAY       PTCLDY    74  37  26 E7        30.07R
MEACHAM        PTCLDY    59  40  49 CALM      30.12S
LA GRANDE      PTCLDY    75  37  25 N7        30.04F
BAKER CITY     CLEAR     60  46  59 CALM      30.07S
BURNS          CLEAR     63  30  28 W8        30.10R
ROME             N/A     74  30  19 SE12      30.08S
ONTARIO        PTCLDY    70  49  47 CALM      29.99R
$$


USA.gov is the U.S. government's official web portal to all federal, state and local government web resources and services.